WetterOnline ( http://www.wetteronline.de )

Wetter aktuell Spessart (in 500m)

Aktuelles Wetter: Neuhütten/Spessart (340m)

6-stündlich | Neueste Meldungen
Ortszeit Temperatur Wetter
Di, 22.01. 7:00 -12.2° C wolkenlos
Di, 22.01. 1:00 -9.5° C wolkenlos
Mo, 21.01. 19:00 -5.1° C wolkenlos
Mo, 21.01. 13:00 -1.6° C wolkenlos
Mo, 21.01. 7:00 -7.4° C wolkenlos
Mo, 21.01. 1:00 -6.7° C bedeckt
So, 20.01. 19:00 -5.0° C wolkenlos
So, 20.01. 13:00 -2.3° C leicht bewölkt
Ortszeit Temperatur Wetter
Di, 22.01. 8:30 -11.5° C bedeckt
Di, 22.01. 8:20 -11.5° C bedeckt
Di, 22.01. 8:10 -11.5° C bedeckt
Di, 22.01. 8:00 -11.5° C wolkig
Di, 22.01. 7:50 -11.5° C wolkig
Di, 22.01. 7:40 -12.0° C leicht bewölkt
Di, 22.01. 7:30 -12.4° C fast wolkenlos
Di, 22.01. 7:00 -12.2° C wolkenlos
Di, 22.01. 6:30 -11.7° C wolkenlos
Di, 22.01. 6:00 -12.0° C wolkenlos
Di, 22.01. 5:30 -11.6° C wolkenlos
Ortszeit Relative Feuchte Sichtweite
Di, 22.01. 7:00 89% 12 km
Di, 22.01. 1:00 92% 8 km
Mo, 21.01. 19:00 83% 20 km
Mo, 21.01. 13:00 63% 25 km
Mo, 21.01. 7:00 90% 12 km
Mo, 21.01. 1:00 91% 13 km
So, 20.01. 19:00 85% 20 km
So, 20.01. 13:00 71% 24 km
Ortszeit Relative Feuchte Sichtweite
Di, 22.01. 8:30 86% 13 km
Di, 22.01. 8:20 86% -
Di, 22.01. 8:10 89% -
Di, 22.01. 8:00 90% 10 km
Di, 22.01. 7:50 90% -
Di, 22.01. 7:40 90% -
Di, 22.01. 7:30 89% 9 km
Di, 22.01. 7:00 89% 12 km
Di, 22.01. 6:30 90% 11 km
Di, 22.01. 6:00 89% 9 km
Di, 22.01. 5:30 89% 9 km
Ortszeit Niederschlagsmenge Niederschlagsart
Di, 22.01. 7:00 0.0 l/m2 in 12 Std. -
Di, 22.01. 1:00 0.0 l/m2 in 6 Std. -
Mo, 21.01. 19:00 0.0 l/m2 in 12 Std. -
Mo, 21.01. 13:00 0.0 l/m2 in 6 Std. -
Mo, 21.01. 7:00 0.0 l/m2 in 12 Std. -
Mo, 21.01. 1:00 0.0 l/m2 in 6 Std. -
So, 20.01. 19:00 0.0 l/m2 in 12 Std. -
So, 20.01. 13:00 0.0 l/m2 in 6 Std. -
Ortszeit Niederschlagsmenge Niederschlagsart
Di, 22.01. 8:30 0.0 l/m2 in 1 Std. -
Di, 22.01. 8:20 keine Meldung -
Di, 22.01. 8:10 keine Meldung -
Di, 22.01. 8:00 0.0 l/m2 in 1 Std. -
Di, 22.01. 7:50 keine Meldung -
Di, 22.01. 7:40 keine Meldung -
Di, 22.01. 7:30 0.0 l/m2 in 1 Std. -
Di, 22.01. 7:00 0.0 l/m2 in 1 Std. -
Di, 22.01. 6:30 0.0 l/m2 in 1 Std. -
Di, 22.01. 6:00 0.0 l/m2 in 1 Std. -
Di, 22.01. 5:30 0.0 l/m2 in 1 Std. -
Ortszeit Stärke Spitze Richtung
km/h Bft. km/h Grad Sektor
Di, 22.01. 7:00 4 1 4 60° NO
Di, 22.01. 1:00 4 1 11 270° W
Mo, 21.01. 19:00 4 1 14 210° SW
Mo, 21.01. 13:00 9 2 13 60° NO
Mo, 21.01. 7:00 4 1 14 170° S
Mo, 21.01. 1:00 9 2 13 70° O
So, 20.01. 19:00 2 1 28 60° NO
So, 20.01. 13:00 7 2 18 80° O
Ortszeit Stärke Spitze Richtung
km/h Bft. km/h Grad Sektor
Di, 22.01. 8:30 4 1 7 60° NO
Di, 22.01. 8:20 4 1 - 60° NO
Di, 22.01. 8:10 4 1 - 60° NO
Di, 22.01. 8:00 0 0 4 - -
Di, 22.01. 7:50 2 1 - 90° O
Di, 22.01. 7:40 2 1 - 200° S
Di, 22.01. 7:30 2 1 4 210° SW
Di, 22.01. 7:00 4 1 4 60° NO
Di, 22.01. 6:30 2 1 4 40° NO
Di, 22.01. 6:00 4 1 4 220° SW
Di, 22.01. 5:30 0 0 4 - -
Ortszeit Untergrenze Bedeckung Gattung
total tief tief mittel hoch
Di, 22.01. 7:00 1500 m 0/8 0/8 - - -
Di, 22.01. 1:00 - 0/8 0/8 - - -
Mo, 21.01. 19:00 - 0/8 0/8 - - -
Mo, 21.01. 13:00 - 0/8 0/8 - - -
Mo, 21.01. 7:00 - 0/8 0/8 - - -
Mo, 21.01. 1:00 510 m 8/8 8/8 - - -
So, 20.01. 19:00 - 0/8 0/8 - - -
So, 20.01. 13:00 5100 m 2/8 2/8 - - -
Ortszeit Bedeckungsgrad in Achtel und Wolkenuntergrenze
Di, 22.01. 8:30 8(210m)
Di, 22.01. 8:20 8(210m)
Di, 22.01. 8:10 8(210m)
Di, 22.01. 8:00 5(240m) 6(330m)
Di, 22.01. 7:50 5(240m) 6(330m)
Di, 22.01. 7:40 4(300m)
Di, 22.01. 7:30 1(1500m)
Di, 22.01. 7:00 1(1500m)
Di, 22.01. 6:30 keine Wolken
Di, 22.01. 6:00 keine Wolken
Di, 22.01. 5:30 keine Wolken
Ortszeit Luftdruck NN (hPa) Tendenz (hPa in 3 Std.)
Di, 22.01. 7:00 1018 - 1,9
Di, 22.01. 1:00 1021 - 1,0
Mo, 21.01. 19:00 1022 + 0,1
Mo, 21.01. 13:00 1023 - 0,6
Mo, 21.01. 7:00 1024 + 0,1
Mo, 21.01. 1:00 1023 + 1,2
So, 20.01. 19:00 1020 + 1,5
So, 20.01. 13:00 1018 + 0,6
Ortszeit Luftdruck NN (hPa) Tendenz (hPa in 3 Std.)
Di, 22.01. 8:30 1017 - 1,3
Di, 22.01. 8:20 1017 keine Meldung
Di, 22.01. 8:10 1017 keine Meldung
Di, 22.01. 8:00 1017 - 1,4
Di, 22.01. 7:50 1017 keine Meldung
Di, 22.01. 7:40 1017 keine Meldung
Di, 22.01. 7:30 1018 - 1,6
Di, 22.01. 7:00 1018 - 1,9
Di, 22.01. 6:30 1018 - 2,2
Di, 22.01. 6:00 1018 - 2,5
Di, 22.01. 5:30 1018 - 2,4
Ortszeit Schneehöhe (cm)
Di, 22.01. 7:00 0
Di, 22.01. 1:00 0
Mo, 21.01. 19:00 0
Mo, 21.01. 13:00 0
Mo, 21.01. 7:00 0
Mo, 21.01. 1:00 0
So, 20.01. 19:00 0
So, 20.01. 13:00 0
Ortszeit Schneehöhe (cm)
Di, 22.01. 8:30 0
Di, 22.01. 8:20 0
Di, 22.01. 8:10 0
Di, 22.01. 8:00 0
Di, 22.01. 7:50 0
Di, 22.01. 7:40 0
Di, 22.01. 7:30 0
Di, 22.01. 7:00 0
Di, 22.01. 6:30 0
Di, 22.01. 6:00 0
Di, 22.01. 5:30 0
Link zu dieser Seite / Seite empfehlen

Das Wetter in ...